Location: Twentynine Palms Airport
(34.1316°N, 115.9458°W)
Time: 15:04:11
(UTC-07:00)

Amateur Radio Satellites - All Passes

Search period start: 25 October 2014 14:34
Search period end: 26 October 2014 14:34
Location: Twentynine Palms Airport, 34.1316°N, 115.9458°W

Satellite Date Start Highest point End Downlink Frequencies (MHz)
Time Altitude Azimuth
TMSAT-1 25 Oct 14:39:13 14:44:22 55° 73° (ENE) 14:49:32 436.925 FM
Sapphire 25 Oct 14:39:32 14:43:14 19° 255° (WSW) 14:46:56 437.095 MHz 1200 baud AX-25 AFSK
AO-27 25 Oct 14:50:17 14:55:09 40° 261° (W) 15:00:04 436.795 MHz FM
AO-Echo 25 Oct 15:06:27 15:10:04 21° 266° (W) 15:13:48 ?
AO-7 25 Oct 15:11:48 15:19:09 37° 63° (ENE) 15:26:30 29.400 - 29.500 MHz
JAS-1B 25 Oct 15:14:02 15:17:27 15° 265° (W) 15:20:45 435.800 - 435.900 CW/SSB
Uosat F 25 Oct 15:14:15 15:17:09 16° 65° (ENE) 15:20:03 435.120 FM
Uribyol 2 25 Oct 15:40:41 15:42:49 12° 268° (W) 15:44:58 436.500 FM
ITAMSAT 1 25 Oct 15:47:31 15:49:07 11° 268° (W) 15:50:43 435.822 SSB
Saudisat 1A 25 Oct 15:55:41 15:59:36 30° 55° (NE) 16:03:29 436.775 MHz
JAS-2 25 Oct 15:56:37 15:58:58 12° 57° (ENE) 16:01:23 435.800 - 435.900 CW/SSB, 435.910 FM
Gurwin Techsat 1B 25 Oct 16:11:19 16:13:55 14° 268° (W) 16:16:32 435.225 FM
TMSAT-1 25 Oct 16:21:37 16:24:33 15° 267° (W) 16:27:30 436.925 FM
Uosat F 25 Oct 16:50:34 16:55:27 52° 259° (W) 17:00:22 435.120 FM
OPAL 25 Oct 17:01:35 17:04:55 18° 96° (E) 17:08:14 ?
AO-7 25 Oct 17:03:59 17:11:43 43° 259° (W) 17:19:30 29.400 - 29.500 MHz
Hamsat 25 Oct 17:26:54 17:30:53 43° 74° (ENE) 17:34:51 145.90 MHz
AO-40 25 Oct 17:27:17 23:31:22 51° 183° (S) 07:35:33 Beacon 2401.320
Saudisat 1A 25 Oct 17:35:32 17:38:59 22° 249° (WSW) 17:42:24 436.775 MHz
JAS-2 25 Oct 17:37:00 17:42:48 90° 258° (WSW) 17:49:26 435.800 - 435.900 CW/SSB, 435.910 FM
OPAL 25 Oct 18:39:17 18:43:55 41° 290° (WNW) 18:48:32 ?
STRAND 1 25 Oct 18:46:46 18:51:01 26° 96° (E) 18:55:14 ?
ISS 25 Oct 18:59:07 19:02:13 34° 38° (NE) 19:05:17 145.800 FM
Hamsat 25 Oct 19:05:21 19:06:59 12° 267° (W) 19:08:37 145.90 MHz
SO-67 25 Oct 19:35:29 19:38:37 34° 262° (W) 19:41:47 435.3500 MHz FM
KITSAT 1 25 Oct 19:43:31 19:48:59 19° 44° (NE) 19:54:26 435.175 FM
RS-15 25 Oct 20:10:51 20:18:15 21° 102° (ESE) 20:25:31 29.354 - 29.394 USB, Beacon 29.352 USB
STRAND 1 25 Oct 20:25:39 20:30:08 31° 290° (WNW) 20:34:36 ?
HO-68 25 Oct 20:32:45 20:39:44 59° 70° (ENE) 20:46:45 435.675 MHz FM
ISS 25 Oct 20:36:22 20:38:42 18° 232° (SW) 20:41:01 145.800 FM
UKube-1 25 Oct 20:42:07 20:44:58 17° 68° (ENE) 20:47:50 145.840 MHz, 145.915 MHz
Oscar 11 25 Oct 21:21:15 21:25:21 43° 74° (ENE) 21:29:27 145.825 FM, Beacon 2401.500 USB
FUNcube-1 25 Oct 21:22:57 21:26:11 19° 69° (ENE) 21:29:22 145.950 - 145.970 MHz USB
KITSAT 1 25 Oct 21:37:22 21:45:29 88° 64° (ENE) 21:53:34 435.175 FM
SO-50 25 Oct 21:44:08 21:48:58 67° 60° (ENE) 21:53:50 436.795 FM
ZACube-1 25 Oct 22:13:09 22:17:44 73° 76° (ENE) 22:22:16 437.345 MHz
UKube-1 25 Oct 22:16:55 22:20:51 34° 262° (W) 22:24:50 145.840 MHz, 145.915 MHz
RS-15 25 Oct 22:18:09 22:29:14 82° 299° (WNW) 22:40:12 29.354 - 29.394 USB, Beacon 29.352 USB
HO-68 25 Oct 22:22:31 22:27:45 22° 265° (W) 22:33:02 435.675 MHz FM
MaSat-1 25 Oct 22:44:24 22:48:13 34° 109° (ESE) 22:51:46 437.345 MHz
FUNcube-1 25 Oct 22:58:07 23:02:17 34° 262° (W) 23:06:25 145.950 - 145.970 MHz USB
Oscar 11 25 Oct 22:59:44 23:01:41 13° 267° (W) 23:03:39 145.825 FM, Beacon 2401.500 USB
UOSAT-12 25 Oct 23:01:59 23:06:21 36° 55° (NE) 23:10:37 437.025 FM, 437.400 FM
SO-50 25 Oct 23:27:20 23:28:57 12° 253° (WSW) 23:30:34 436.795 FM
KITSAT 1 25 Oct 23:35:38 23:39:47 15° 259° (W) 23:43:57 435.175 FM
MaSat-1 26 Oct 00:21:15 00:23:49 16° 300° (WNW) 00:26:16 437.345 MHz
RS-15 26 Oct 00:35:24 00:43:26 23° 323° (NW) 00:51:33 29.354 - 29.394 USB, Beacon 29.352 USB
UOSAT-12 26 Oct 00:42:47 00:46:12 20° 251° (WSW) 00:49:34 437.025 FM, 437.400 FM
JAS-1B 26 Oct 01:07:33 01:12:48 21° 96° (E) 01:18:38 435.800 - 435.900 CW/SSB
Oscar 19 26 Oct 01:08:17 01:11:11 15° 93° (E) 01:14:04 437.125 CW, 437.150 USB
AO-Echo 26 Oct 01:38:41 01:42:02 17° 93° (E) 01:45:22 ?
Oscar 16 26 Oct 01:52:36 01:57:31 46° 100° (E) 02:02:25 437.025 USB, Beacon 2401.1428
PCSat 26 Oct 02:14:02 02:17:37 18° 105° (ESE) 02:21:12 145.825 MHz
Uribyol 2 26 Oct 02:14:54 02:19:27 30° 97° (E) 02:23:58 436.500 FM
ITAMSAT 1 26 Oct 02:21:11 02:25:52 33° 98° (E) 02:30:30 435.822 SSB
Oscar 19 26 Oct 02:45:49 02:50:45 51° 287° (WNW) 02:55:41 437.125 CW, 437.150 USB
Gurwin Techsat 1B 26 Oct 02:48:51 02:53:34 32° 97° (E) 02:58:16 435.225 FM
JAS-1B 26 Oct 02:56:36 03:03:27 65° 286° (WNW) 03:11:40 435.800 - 435.900 CW/SSB
TMSAT-1 26 Oct 02:59:17 03:03:53 29° 97° (E) 03:08:27 436.925 FM
RS-15 26 Oct 03:01:31 03:02:13 10° 0° (N) 03:02:55 29.354 - 29.394 USB, Beacon 29.352 USB
AO-27 26 Oct 03:06:45 03:12:00 83° 284° (WNW) 03:17:12 436.795 MHz FM
AO-Echo 26 Oct 03:15:52 03:21:00 50° 287° (WNW) 03:26:05 ?
AO-7 26 Oct 03:20:26 03:23:37 12° 91° (E) 03:26:46 29.400 - 29.500 MHz
Sapphire 26 Oct 03:32:43 03:38:07 86° 295° (WNW) 03:43:34 437.095 MHz 1200 baud AX-25 AFSK
Oscar 16 26 Oct 03:33:08 03:36:28 18° 294° (WNW) 03:39:48 437.025 USB, Beacon 2401.1428
Uribyol 2 26 Oct 03:54:28 03:58:46 27° 291° (WNW) 04:03:03 436.500 FM
PCSat 26 Oct 03:55:21 04:00:34 49° 300° (WNW) 04:05:50 145.825 MHz
ITAMSAT 1 26 Oct 04:00:57 04:05:09 25° 292° (WNW) 04:09:20 435.822 SSB
OPAL 26 Oct 04:12:44 04:16:45 24° 66° (ENE) 04:20:44 ?
Gurwin Techsat 1B 26 Oct 04:29:00 04:33:21 27° 292° (WNW) 04:37:42 435.225 FM
TMSAT-1 26 Oct 04:39:12 04:43:41 29° 291° (WNW) 04:48:09 436.925 FM
JAS-2 26 Oct 04:51:15 04:56:37 20° 91° (E) 05:01:52 435.800 - 435.900 CW/SSB, 435.910 FM
Uosat F 26 Oct 05:01:54 05:06:56 66° 102° (ESE) 05:11:55 435.120 FM
AO-7 26 Oct 05:08:57 05:17:19 82° 107° (ESE) 05:25:41 29.400 - 29.500 MHz
RS-15 26 Oct 05:12:40 05:21:01 23° 37° (NE) 05:29:32 29.354 - 29.394 USB, Beacon 29.352 USB
Sapphire 26 Oct 05:20:32 05:22:19 12° 313° (NW) 05:24:06 437.095 MHz 1200 baud AX-25 AFSK
OPAL 26 Oct 05:50:41 05:55:23 35° 260° (W) 06:00:04 ?
PANSAT 26 Oct 05:51:47 05:54:17 17° 161° (SSE) 05:56:46 not established
STRAND 1 26 Oct 05:59:16 06:03:27 26° 68° (ENE) 06:07:39 ?
Saudisat 1A 26 Oct 05:59:32 06:02:31 18° 110° (ESE) 06:05:30 436.775 MHz
JAS-2 26 Oct 06:34:17 06:42:07 74° 286° (WNW) 06:49:47 435.800 - 435.900 CW/SSB, 435.910 FM
Uosat F 26 Oct 06:43:01 06:45:06 13° 297° (WNW) 06:47:10 435.120 FM
Hamsat 26 Oct 06:51:44 06:55:49 52° 285° (WNW) 06:59:55 145.90 MHz
SO-67 26 Oct 07:02:46 07:05:13 18° 95° (E) 07:07:41 435.3500 MHz FM
AO-7 26 Oct 07:03:37 07:09:07 20° 304° (WNW) 07:14:38 29.400 - 29.500 MHz
RS-15 26 Oct 07:23:59 07:35:17 81° 61° (ENE) 07:47:05 29.354 - 29.394 USB, Beacon 29.352 USB
PANSAT 26 Oct 07:30:32 07:33:58 32° 173° (S) 07:37:24 not established
Saudisat 1A 26 Oct 07:37:44 07:41:47 36° 304° (NW) 07:45:51 436.775 MHz
STRAND 1 26 Oct 07:37:58 07:42:28 31° 263° (W) 07:47:00 ?
Oscar 10/S400 26 Oct 07:45:59 23:09:18 50° 216° (SW) 09:06:51 145.825 - 145.975 CW/USB, Beacon 145.810 USB
HO-68 26 Oct 08:08:18 08:10:37 12° 91° (E) 08:12:54 435.675 MHz FM
JAS-2 26 Oct 08:22:24 08:25:49 14° 302° (WNW) 08:29:14 435.800 - 435.900 CW/SSB, 435.910 FM
MaSat-1 26 Oct 08:34:25 08:35:55 14° 60° (ENE) 08:37:22 437.345 MHz
SO-67 26 Oct 08:35:38 08:38:03 18° 289° (WNW) 08:40:27 435.3500 MHz FM
PANSAT 26 Oct 09:10:19 09:13:46 32° 186° (S) 09:17:12 not established
Oscar 11 26 Oct 09:15:37 09:16:10 10° 92° (E) 09:16:42 145.825 FM, Beacon 2401.500 USB
RS-15 26 Oct 09:38:27 09:46:26 23° 258° (WSW) 09:54:41 29.354 - 29.394 USB, Beacon 29.352 USB
HO-68 26 Oct 09:51:51 09:59:05 87° 105° (ESE) 10:06:16 435.675 MHz FM
ZACube-1 26 Oct 10:07:30 10:10:19 17° 94° (E) 10:13:06 437.345 MHz
UKube-1 26 Oct 10:08:21 10:12:37 51° 100° (E) 10:16:50 145.840 MHz, 145.915 MHz
KITSAT 1 26 Oct 10:09:36 10:14:28 17° 102° (ESE) 10:19:20 435.175 FM
Oscar 11 26 Oct 10:48:24 10:52:36 52° 285° (WNW) 10:56:46 145.825 FM, Beacon 2401.500 USB
FUNcube-1 26 Oct 10:50:42 10:54:53 61° 101° (E) 10:58:58 145.950 - 145.970 MHz USB
PANSAT 26 Oct 10:50:55 10:53:27 17° 198° (SSW) 10:56:00 not established
ISS 26 Oct 11:38:11 11:41:29 90° 138° (SE) 11:44:49 145.800 FM
HO-68 26 Oct 11:41:53 11:45:49 16° 302° (WNW) 11:49:46 435.675 MHz FM
ZACube-1 26 Oct 11:43:04 11:46:44 29° 288° (WNW) 11:50:20 437.345 MHz
UKube-1 26 Oct 11:46:39 11:48:18 12° 295° (WNW) 11:49:57 145.840 MHz, 145.915 MHz
SO-50 26 Oct 11:55:34 11:59:52 51° 115° (ESE) 12:04:17 436.795 FM
KITSAT 1 26 Oct 12:00:48 12:08:53 80° 297° (WNW) 12:17:01 435.175 FM
Oscar 19 26 Oct 12:21:56 12:25:02 16° 65° (ENE) 12:28:07 437.125 CW, 437.150 USB
Sapphire 26 Oct 12:24:46 12:29:43 34° 58° (ENE) 12:34:37 437.095 MHz 1200 baud AX-25 AFSK
AO-27 26 Oct 12:46:20 12:47:32 11° 62° (ENE) 12:48:44 436.795 MHz FM
PCSat 26 Oct 12:46:49 12:52:11 59° 62° (ENE) 12:57:30 145.825 MHz
AO-Echo 26 Oct 12:49:01 12:51:33 14° 64° (ENE) 12:54:06 ?
Oscar 16 26 Oct 13:05:52 13:10:47 46° 72° (ENE) 13:15:42 437.025 USB, Beacon 2401.1428
UOSAT-12 26 Oct 13:10:02 13:13:47 25° 111° (ESE) 13:17:37 437.025 FM, 437.400 FM
ISS 26 Oct 13:17:14 13:18:36 12° 333° (NNW) 13:19:57 145.800 FM
Uribyol 2 26 Oct 13:29:11 13:33:45 32° 70° (ENE) 13:38:22 436.500 FM
ITAMSAT 1 26 Oct 13:35:35 13:40:15 35° 70° (ENE) 13:44:57 435.822 SSB
SO-50 26 Oct 13:37:54 13:40:43 16° 312° (NW) 13:43:35 436.795 FM
JAS-1B 26 Oct 13:39:24 13:45:28 80° 75° (ENE) 13:51:09 435.800 - 435.900 CW/SSB
Oscar 19 26 Oct 13:58:54 14:03:54 51° 260° (W) 14:08:55 437.125 CW, 437.150 USB
KITSAT 1 26 Oct 14:00:30 14:05:33 18° 318° (NW) 14:10:39 435.175 FM
Gurwin Techsat 1B 26 Oct 14:06:19 14:11:06 36° 71° (ENE) 14:15:54 435.225 FM
Sapphire 26 Oct 14:08:27 14:12:56 27° 253° (WSW) 14:17:24 437.095 MHz 1200 baud AX-25 AFSK
AO-7 26 Oct 14:16:05 14:20:16 15° 53° (NE) 14:24:27 29.400 - 29.500 MHz
TMSAT-1 26 Oct 14:16:27 14:21:07 32° 70° (ENE) 14:25:47 436.925 FM
AO-27 26 Oct 14:21:06 14:26:18 80° 257° (WSW) 14:31:33 436.795 MHz FM
